EHI
15 15 14 12 11 9 6 4 3 3 4 5 6 6 6 5 4 2 1 0 0 0 0 0 0 0 0 0 0 0 0 0 0 0 0 0 0 0 0 0 0 0 0
17 16 14 12 10 7 5 3 3 3 4 5 6 6 5 4 3 1 0 0 0 0 0 1 1 1 1 1 0 0 0 0 0 0 0 0 0 0 0 0 0 0 0
17 16 13 10 8 5 3 3 4 4 5 5 6 5 4 3 2 1 0 0 0 0 1 2 2 2 2 2 1 1 0 0 0 0 0 0 0 0 0 0 1 1 1
14 14 11 8 6 5 4 4 4 5 4 3 3 3 3 2 2 1 0 1 1 1 1 2 2 2 3 3 2 1 0 0 0 0 0 0 1 1 1 1 2 2 2
9 9 9 7 6 6 5 4 5 5 3 1 1 2 1 1 1 0 0 1 2 2 1 1 1 1 1 2 2 1 0 0 0 0 0 1 1 2 3 3 3 3 2
5 6 7 6 7 7 5 5 5 5 2 0 0 0 0 0 0 0 0 0 1 1 1 0 0 0 0 1 1 0 0 0 0 0 0 0 1 2 3 3 3 3 3
4 5 6 6 7 6 6 5 5 4 2 0 0 0 0 0 0 0 0 0 0 0 0 0 0 0 0 0 0 0 0 0 0 0 0 0 1 2 3 3 3 3 3
5 5 6 6 6 5 5 5 4 4 3 1 0 1 1 1 0 0 0 0 0 0 0 0 0 0 0 0 0 0 0 0 0 0 0 0 1 2 3 3 3 3 2
6 6 6 6 5 4 4 4 4 3 2 1 1 2 2 2 1 0 0 0 0 0 0 0 0 0 0 0 0 0 0 0 0 0 0 0 1 2 2 2 2 2 3
7 6 5 5 5 4 3 3 3 3 1 1 2 3 3 3 2 0 0 0 0 0 0 0 0 0 0 0 0 0 0 0 0 0 0 0 1 1 1 1 1 2 3
7 6 4 3 4 3 3 3 3 3 3 2 2 2 2 2 1 1 0 0 0 0 0 0 0 0 0 0 0 0 0 0 0 0 0 1 2 2 1 0 1 2 3
5 4 3 2 3 3 3 3 3 3 3 2 1 1 1 1 1 1 1 0 0 0 0 0 0 0 0 0 0 0 0 0 0 0 0 1 2 3 2 1 1 2 1
4 3 2 2 3 3 3 3 3 3 3 1 0 0 0 0 1 1 1 0 0 0 0 0 0 0 0 0 0 0 0 0 0 0 0 1 2 3 3 3 2 1 0
3 3 1 1 2 3 2 3 3 3 2 1 0 0 0 0 0 0 0 0 0 0 0 0 0 0 0 0 0 0 0 0 0 0 0 1 3 3 3 3 3 1 0
3 3 2 1 1 1 1 1 2 1 1 0 0 0 0 0 0 0 0 0 0 0 0 0 0 0 0 0 0 0 0 0 0 0 1 2 3 3 3 3 2 1 1
4 4 3 1 0 0 0 0 0 0 0 0 0 0 0 0 0 0 0 0 0 0 0 0 0 0 0 0 0 0 0 0 0 1 1 3 3 3 3 1 1 1 0
6 5 3 1 0 0 0 0 0 0 0 0 0 0 0 0 0 0 0 0 0 0 0 0 0 0 0 0 0 0 0 0 1 2 3 3 3 3 2 1 0 0 0
8 7 4 1 0 0 0 0 0 0 0 0 0 0 0 0 0 0 0 0 0 0 0 0 0 0 0 0 0 0 0 1 2 3 3 3 3 3 1 0 0 0 0
9 8 5 2 1 0 0 0 0 0 0 0 0 0 0 0 0 0 0 0 0 0 0 0 0 0 0 0 0 0 0 1 2 3 3 3 3 2 1 0 0 0 0
10 9 6 3 2 1 1 1 0 0 0 0 0 0 0 0 0 0 0 0 0 0 0 0 0 0 0 0 0 0 0 1 2 3 3 3 3 2 1 0 0 0 0
10 8 6 4 4 3 3 2 1 1 1 1 1 0 0 0 0 0 0 0 0 0 0 0 0 0 0 0 0 0 0 1 2 3 3 3 3 1 0 0 0 0 0
9 8 6 5 5 4 4 3 3 3 3 3 3 2 0 0 0 0 0 0 0 0 0 0 0 0 0 0 0 0 0 0 1 3 3 3 2 1 0 0 0 0 0
9 8 6 6 5 4 4 4 4 4 4 4 5 3 1 0 0 0 0 0 0 0 0 0 0 0 0 0 0 0 0 0 1 2 3 2 1 0 0 0 0 0 0
7 6 5 5 5 5 4 4 4 3 3 4 4 3 2 1 0 0 0 0 0 0 0 0 0 0 0 0 0 0 0 0 1 1 1 1 0 0 0 0 0 0 0
3 3 3 3 4 4 4 3 3 3 3 3 3 3 3 2 1 0 0 0 0 0 0 0 0 0 0 0 0 0 0 0 0 0 0 0 0 0 0 0 0 0 0
0 1 2 3 3 3 3 3 3 3 3 3 3 3 3 2 1 0 0 0 0 0 0 0 0 0 0 0 0 0 0 0 0 0 0 0 0 0 0 0 0 0 0
Wind_Speed
4 3 3 2 2 2 2 2 1 1 1 1 1 1 1 1 1 1 0 0 1 1 1 1 1 1 1 1 1 1 1 2 3 3 2 2 1 2 2 2 3 3 3
4 4 3 3 3 2 2 1 1 1 1 1 1 1 0 0 0 1 1 0 0 0 1 1 2 1 1 1 1 1 1 1 2 3 2 2 2 2 2 2 3 3 3
4 5 3 3 3 2 1 1 1 1 1 1 1 1 1 1 1 1 1 1 1 1 1 1 2 1 2 2 1 1 1 1 1 2 3 2 2 2 2 2 3 2 3
4 5 4 3 2 2 2 2 1 1 1 1 0 0 1 1 1 1 1 1 1 1 1 2 2 2 3 3 2 2 1 1 1 1 2 2 2 2 1 1 2 2 3
4 4 3 2 2 2 2 2 1 1 2 1 1 1 1 0 0 0 1 1 1 1 2 2 2 2 3 2 2 2 2 1 1 1 2 2 2 1 2 2 2 3 3
4 3 3 2 2 1 1 2 1 1 1 2 2 1 1 1 2 1 0 1 1 1 2 3 3 3 3 3 3 2 2 2 2 2 2 2 4 3 3 2 2 2 3
4 3 3 2 2 1 1 1 1 1 1 1 0 1 1 2 3 2 1 0 1 2 2 2 2 2 2 2 3 3 3 3 3 3 3 4 4 4 3 2 2 3 4
4 3 3 2 2 1 1 1 1 1 1 1 1 0 0 2 3 2 2 1 1 1 2 2 1 2 2 1 1 2 3 4 4 3 4 5 5 4 3 4 4 3 3
4 3 3 3 2 2 1 2 2 1 1 1 1 1 0 2 3 3 3 1 1 2 2 2 1 2 4 2 1 2 4 5 4 5 5 5 6 6 3 1 1 1 3
3 4 3 4 4 3 3 2 2 2 1 1 1 1 0 1 2 4 3 1 1 2 3 3 4 3 4 3 1 2 4 5 4 5 4 5 5 5 4 3 3 2 2
3 3 2 3 3 3 2 2 2 1 1 1 1 1 1 0 1 3 3 1 0 1 2 3 3 5 5 4 3 3 5 5 3 3 3 3 3 3 3 3 3 4 3
2 2 2 2 2 2 2 2 1 1 1 1 0 1 1 1 1 2 2 2 1 1 2 3 3 5 6 6 4 4 5 4 2 2 2 3 3 3 3 3 3 3 4
2 2 2 2 2 2 3 2 2 2 2 1 1 1 2 2 2 3 3 3 3 1 2 4 5 6 5 4 5 5 4 1 1 1 2 3 3 3 3 2 2 2 2
3 2 2 2 1 1 1 2 2 2 2 2 2 2 2 2 2 2 2 2 3 3 3 4 6 6 4 4 4 4 2 1 1 2 2 3 2 2 2 1 2 2 1
2 2 2 2 2 2 1 1 3 3 4 4 3 3 2 2 4 4 1 2 2 2 2 2 2 3 3 3 3 3 3 2 2 2 2 2 2 2 2 1 1 1 1
2 2 2 2 1 2 2 0 2 1 3 4 4 4 3 4 3 3 2 2 2 1 2 1 2 2 2 3 3 3 3 3 2 2 2 2 2 2 2 2 1 1 1
3 3 2 2 2 2 2 2 1 3 2 2 3 4 4 3 2 2 2 2 2 2 2 1 1 2 2 3 3 3 3 3 2 2 2 2 2 2 2 2 2 1 1
2 2 2 2 2 2 2 2 2 2 1 1 2 3 4 4 3 2 1 1 2 1 0 0 1 2 2 2 2 2 3 3 3 3 2 2 2 2 2 2 2 1 1
2 2 2 2 2 2 2 2 2 1 2 1 1 2 3 2 2 1 2 2 1 1 1 1 1 1 2 2 2 2 2 2 2 2 2 2 2 1 2 2 2 2 1
3 4 3 2 2 2 2 2 2 2 2 2 2 3 1 1 0 1 1 2 2 2 2 2 2 1 1 1 1 2 2 2 3 2 2 2 2 2 2 2 2 1 1
2 3 3 2 2 3 3 3 3 3 3 3 4 4 4 3 3 3 2 2 3 3 2 2 1 1 1 1 0 1 1 2 2 2 2 2 2 2 2 2 1 1 1
2 3 3 3 3 3 3 3 3 3 4 4 3 3 5 3 3 3 3 3 3 2 2 1 1 1 1 1 1 1 1 2 2 2 2 2 2 2 2 2 2 1 1
2 3 2 2 2 3 3 2 3 3 3 3 3 2 2 2 2 2 2 2 1 1 1 1 1 1 1 1 1 1 1 2 2 2 2 2 3 2 2 2 3 2 2
3 3 3 3 2 2 3 3 3 3 3 3 2 2 2 2 2 2 2 2 1 1 1 1 1 1 1 0 0 1 1 2 2 2 2 3 3 3 2 2 3 2 2
2 3 3 3 3 3 2 2 2 2 2 2 2 2 2 2 2 2 2 2 2 2 2 1 1 1 1 1 1 1 2 2 2 2 2 2 3 3 3 3 2 2 2
3 3 2 2 2 2 2 2 2 2 2 2 2 2 2 2 2 2 2 2 2 2 2 1 1 1 1 1 1 1 1 2 3 3 2 2 2 3 3 2 3 2 2
Wind_Direction
144 138 128 123 121 123 125 129 136 133 129 120 105 95 86 78 85 94 62 56 71 0 347 348 295 293 307 311 309 292 241 192 223 269 270 288 293 284 285 258 242 244 254
145 134 130 121 110 105 108 118 132 146 158 160 151 140 132 50 89 153 235 291 190 270 283 288 292 299 304 289 281 280 259 217 202 260 284 291 279 274 273 269 266 257 251
131 125 119 111 109 116 124 119 115 121 128 141 141 167 225 244 238 214 201 236 235 248 262 254 262 274 284 277 268 271 276 274 216 231 271 279 280 288 304 295 285 282 269
130 128 130 134 139 145 133 112 100 104 94 61 65 213 238 246 241 217 193 211 256 276 275 260 255 245 244 251 255 250 249 268 263 250 272 285 278 287 294 291 300 292 277
122 127 138 154 151 136 129 118 107 107 97 84 56 31 3 331 284 240 201 201 228 272 286 277 270 272 267 255 252 232 217 211 236 254 277 295 287 284 269 261 269 287 290
131 137 146 141 135 145 151 141 129 118 102 85 67 40 14 354 2 2 85 230 256 263 278 288 291 289 295 288 290 270 212 202 214 223 241 256 272 262 254 251 261 295 294
141 144 147 143 136 152 158 140 171 172 125 107 93 62 359 338 2 10 13 184 257 264 262 279 304 325 333 303 312 325 303 277 235 215 226 243 249 253 256 264 252 246 253
135 143 151 149 150 156 155 172 196 169 147 178 208 214 323 333 359 8 16 22 332 302 274 252 264 301 313 301 300 312 293 286 267 244 233 249 250 243 228 236 242 256 272
150 164 172 171 166 173 190 209 205 171 171 210 214 209 310 327 2 24 41 32 346 316 305 296 278 285 299 308 310 291 299 302 294 279 266 269 274 273 255 235 268 270 284
180 185 181 176 180 193 202 207 196 172 202 201 221 251 246 333 7 27 43 63 358 324 324 320 314 307 308 317 289 271 286 291 307 318 311 301 285 283 272 225 212 216 248
183 175 176 181 188 194 192 191 191 182 181 187 190 256 246 291 1 25 37 76 248 301 315 309 303 312 312 306 294 265 266 277 291 294 295 298 300 297 282 254 222 204 212
164 162 176 185 197 183 184 201 197 166 157 186 179 302 296 291 320 337 346 332 317 246 274 282 296 312 315 313 302 289 291 297 296 305 305 294 287 283 281 272 252 229 223
155 179 198 194 201 189 184 190 190 178 178 206 201 239 279 291 297 315 324 318 321 308 279 294 305 309 312 312 308 307 317 324 305 299 290 281 271 271 285 298 297 275 273
172 201 200 185 198 181 182 183 180 187 190 202 211 232 257 280 289 313 319 314 328 331 322 318 319 318 321 315 322 329 331 310 272 272 282 287 297 303 294 286 291 306 313
172 192 192 192 183 177 182 201 198 207 196 188 202 202 209 259 266 265 261 284 295 299 326 343 356 354 349 346 345 342 343 352 341 313 305 311 321 327 311 313 306 309 276
165 190 191 193 180 169 163 7 343 261 223 199 195 191 216 231 269 290 299 307 314 358 56 7 343 340 330 332 337 335 335 335 328 322 323 322 324 328 327 333 338 319 285
177 189 194 188 179 180 174 171 227 334 345 251 216 209 215 238 263 285 306 321 345 69 73 349 327 322 321 324 326 323 320 322 326 332 324 320 326 330 330 326 331 340 320
184 187 178 184 186 187 188 191 184 185 234 311 278 238 241 250 255 255 233 90 26 41 100 292 294 297 305 316 323 324 324 333 341 340 335 330 329 323 320 316 307 308 305
179 184 188 189 188 184 187 183 185 189 196 223 277 289 266 264 284 291 137 142 191 238 245 261 268 283 301 310 319 324 329 331 332 330 327 325 328 329 322 318 312 310 309
195 200 194 187 190 184 186 187 194 200 210 217 231 245 240 117 139 272 199 208 214 235 239 244 259 266 276 295 327 338 341 335 332 330 323 320 331 344 325 315 312 311 306
205 203 198 187 192 194 197 201 202 206 215 223 236 238 201 189 211 218 216 221 223 230 235 237 248 271 274 273 294 309 314 314 317 323 328 331 337 328 311 303 295 287 283
199 194 191 194 198 200 205 206 203 207 216 223 238 242 215 204 211 220 224 229 228 225 220 206 218 239 237 222 247 278 296 305 311 316 320 320 316 312 312 310 309 294 276
197 195 199 206 204 209 216 216 210 210 218 221 221 217 203 208 215 217 220 221 205 204 209 202 214 258 253 224 216 213 248 277 285 289 298 308 310 309 303 298 295 292 280
202 201 206 216 217 211 212 219 220 217 212 210 209 204 204 203 205 208 207 205 194 203 205 200 199 207 213 287 287 259 259 271 281 274 275 282 292 294 295 297 290 279 264
220 215 210 213 215 219 219 220 214 208 199 194 195 199 206 201 199 206 200 192 195 203 206 200 205 204 209 227 279 292 296 297 294 299 284 279 290 295 291 286 285 278 262
217 218 212 210 206 202 195 194 196 194 198 203 200 203 201 194 190 193 193 192 197 206 209 213 213 201 199 222 254 286 301 302 299 296 285 280 292 297 294 281 278 267 260